Location: Grand Lay
(47.3253°N, 0.9468°E)
Time: 19:58:43
(UTC+00:00)

Gbstr 26 Del rocket - Pass Details

Date: 17 April 2026
Orbit: 490 x 1216 km, 51.8° (Epoch: 13 May)

Event Time Altitude Azimuth Distance (km) Brightness Sun altitude
Exits shadow 00:55:25 13° 62° (ENE) 1,513 5.5 -30.8°
Drops below altitude 10° 00:55:52 10° 63° (ENE) 1,694 5.8 -30.7°
Sets 00:58:01 0° 68° (ENE) 2,565 6.7 -30.6°
